Simultaneous Nadir Overpasses (SNOs) Predictions

Prediction of SNOs between AQUA and METOP-B Satellite Orbit:

Table of predicted SNOs for the next 14.0 days since TLE Epoch: 9/28/2024
Index Date (AQUA) Time (AQUA) Lat,Lon (AQUA) SZA (AQUA ) Date (METOP-B) Time (METOP-B) Lat,Lon (METOP-B) SZA (METOP-B ) Distance(km) Time Diff (sec)
1 09/29/2024 08:51:25 76.30, 45.03 78.88 09/29/2024 08:51:12 76.32, 45.07 78.91 3.43 13
2 09/29/2024 09:40:46 -76.35,-147.50 101.05 09/29/2024 09:41:53 -76.34,-147.54 101.06 1.44 67
3 10/01/2024 23:21:40 76.30,-172.51 79.90 10/01/2024 23:21:25 76.33,-172.49 79.93 3.20 15
4 10/02/2024 00:11:01 -76.36, -5.02 100.04 10/02/2024 00:12:06 -76.35, -5.08 100.04 1.67 65
5 10/04/2024 13:51:52 76.34, -30.13 80.94 10/04/2024 13:51:37 76.32, -30.10 80.92 2.48 15
6 10/04/2024 14:41:13 -76.39, 137.36 99.00 10/04/2024 14:42:17 -76.39, 137.48 98.99 3.00 64
7 10/07/2024 04:22:01 76.32, 112.46 81.92 10/07/2024 04:21:49 76.34, 112.39 81.94 3.23 12
8 10/07/2024 05:11:22 -76.36, -80.03 98.03 10/07/2024 05:12:30 -76.37, -80.19 98.02 4.12 68
9 10/09/2024 18:02:38 -75.90, 88.68 97.52 10/09/2024 18:01:32 -75.85, 85.81 97.58 78.01 66
10 10/09/2024 18:52:09 76.37,-105.19 82.96 10/09/2024 18:52:01 76.34,-105.18 82.94 3.38 8



Historial Predications of SNOs between AQUA and METOP-B
